TimeEST,TemperatureF,Dew PointF,Humidity,Sea Level PressureIn,VisibilityMPH,Wind Direction,Wind SpeedMPH,Gust SpeedMPH,PrecipitationIn,Events,Conditions,WindDirDegrees,DateUTC
12:15 AM,46.4,28.4,50,30.33,10.0,NW,8.1,-,N/A,,Clear,320,2013-02-18 05:15:00
12:35 AM,46.4,26.6,46,30.33,10.0,NW,8.1,-,N/A,,Clear,320,2013-02-18 05:35:00
12:55 AM,46.4,26.6,46,30.34,10.0,NW,8.1,-,N/A,,Clear,320,2013-02-18 05:55:00
1:15 AM,46.4,26.6,46,30.34,10.0,NW,9.2,-,N/A,,Clear,320,2013-02-18 06:15:00
1:35 AM,46.4,24.8,43,30.33,10.0,NW,9.2,-,N/A,,Clear,320,2013-02-18 06:35:00
1:55 AM,46.4,24.8,43,30.33,10.0,NW,9.2,-,N/A,,Clear,320,2013-02-18 06:55:00
2:15 AM,46.4,23.0,40,30.33,10.0,NW,8.1,-,N/A,,Clear,320,2013-02-18 07:15:00
2:35 AM,46.4,21.2,37,30.32,10.0,NW,9.2,-,N/A,,Clear,320,2013-02-18 07:35:00
2:55 AM,46.4,21.2,37,30.32,10.0,NW,9.2,-,N/A,,Clear,320,2013-02-18 07:55:00
3:15 AM,46.4,23.0,40,30.31,10.0,NNW,8.1,-,N/A,,Clear,330,2013-02-18 08:15:00
3:35 AM,46.4,21.2,37,30.31,10.0,NW,8.1,-,N/A,,Clear,320,2013-02-18 08:35:00
3:55 AM,46.4,21.2,37,30.30,10.0,NW,9.2,-,N/A,,Clear,320,2013-02-18 08:55:00
4:15 AM,46.4,23.0,40,30.31,10.0,NW,9.2,-,N/A,,Clear,320,2013-02-18 09:15:00
4:35 AM,46.4,23.0,40,30.31,10.0,NW,8.1,-,N/A,,Clear,310,2013-02-18 09:35:00
4:55 AM,46.4,26.6,46,30.31,10.0,NW,9.2,-,N/A,,Clear,320,2013-02-18 09:55:00
5:15 AM,46.4,26.6,46,30.31,10.0,NNW,9.2,-,N/A,,Clear,330,2013-02-18 10:15:00
6:47 AM,46.4,32.0,57,30.31,10.0,WNW,6.9,-,N/A,,Scattered Clouds,300,2013-02-18 11:47:00
7:47 AM,48.2,32.0,54,30.33,10.0,NW,6.9,-,N/A,,Mostly Cloudy,310,2013-02-18 12:47:00
8:47 AM,50.0,35.6,58,30.34,10.0,NW,5.8,-,N/A,,Mostly Cloudy,320,2013-02-18 13:47:00
10:47 AM,68.0,41.0,37,30.36,10.0,East,15.0,20.7,N/A,,Mostly Cloudy,80,2013-02-18 15:47:00
1:47 PM,66.2,42.8,43,30.31,7.0,ESE,15.0,20.7,N/A,,Mostly Cloudy,110,2013-02-18 18:47:00
2:47 PM,66.2,44.6,46,30.29,7.0,ESE,10.4,-,N/A,,Mostly Cloudy,120,2013-02-18 19:47:00
4:47 PM,66.2,42.8,43,30.28,7.0,East,9.2,-,N/A,,Mostly Cloudy,100,2013-02-18 21:47:00
5:47 PM,64.4,42.8,45,30.29,7.0,ESE,9.2,-,N/A,,Mostly Cloudy,110,2013-02-18 22:47:00
6:47 PM,64.4,44.6,49,30.29,7.0,East,8.1,-,N/A,,Mostly Cloudy,100,2013-02-18 23:47:00
7:15 PM,62.6,44.6,52,30.28,10.0,East,6.9,-,N/A,,Overcast,90,2013-02-19 00:15:00
7:35 PM,64.4,44.6,49,30.28,10.0,East,6.9,-,N/A,,Overcast,100,2013-02-19 00:35:00
7:55 PM,64.4,44.6,49,30.28,10.0,East,6.9,-,N/A,,Overcast,100,2013-02-19 00:55:00
8:15 PM,64.4,44.6,49,30.27,10.0,East,8.1,-,N/A,,Overcast,90,2013-02-19 01:15:00
8:35 PM,64.4,44.6,49,30.27,10.0,East,9.2,-,N/A,,Mostly Cloudy,100,2013-02-19 01:35:00
8:55 PM,64.4,46.4,52,30.27,10.0,East,9.2,-,N/A,,Mostly Cloudy,100,2013-02-19 01:55:00
9:15 PM,62.6,46.4,55,30.26,10.0,ESE,8.1,-,N/A,,Scattered Clouds,110,2013-02-19 02:15:00
9:35 PM,62.6,46.4,55,30.27,10.0,ESE,8.1,-,N/A,,Scattered Clouds,120,2013-02-19 02:35:00
9:55 PM,64.4,46.4,52,30.26,10.0,ESE,6.9,-,N/A,,Mostly Cloudy,120,2013-02-19 02:55:00
10:15 PM,64.4,46.4,52,30.26,10.0,ESE,8.1,-,N/A,,Overcast,120,2013-02-19 03:15:00
10:35 PM,64.4,48.2,56,30.26,10.0,ESE,11.5,-,N/A,,Mostly Cloudy,120,2013-02-19 03:35:00
10:55 PM,64.4,50.0,59,30.26,10.0,ESE,10.4,-,N/A,,Mostly Cloudy,120,2013-02-19 03:55:00
11:15 PM,64.4,50.0,59,30.26,10.0,ESE,8.1,-,N/A,,Mostly Cloudy,120,2013-02-19 04:15:00
11:35 PM,64.4,50.0,59,30.25,10.0,ESE,10.4,-,N/A,,Scattered Clouds,110,2013-02-19 04:35:00
11:55 PM,64.4,50.0,59,30.24,10.0,ESE,9.2,18.4,N/A,,Scattered Clouds,120,2013-02-19 04:55:00